Weather in Orel

Russia / Pskov Oblast     58°28′20″N   28°16′28″E
В апреле 2022 года жителям России запретили посещать сайт meteo.paraplan.net по решению Генеральной прокуратуры. Аудитория сайта уменьшилась в 10 раз. Владельцы сайта не видят смысла в поддержке погодного сервера в таких условиях. Сайт будет закрыт в октябре.
temp.,
°C
wind,
m/s
gust,
m/s
humid.,
%
clouds,
%
prec.,
mm/h
press.,
hPa
HPBL,
m
4 october, tue
tue400:00+6nne61493100 5.0 997835
03:00+6n41096100 7.8 997593
06:00+7nne2598100 2.7 998320
09:00+7ne2495100 4.0 999188
12:00+8ene348398 0.1 1001641
15:00+8nne1380100 0.2 1003506
18:00+7n128687 0.2 100530
21:00+7w2289100 0.4 100678
5 october, wed
wed500:00+7wnw3995100 0.7 1007594
03:00+7nw4109399 1.3 1009693
06:00+7nnw1396100 0.2 1010175
09:00+7w149598 0.6 1011233
12:00+9w2482100 0.0 1012498
15:00+10wsw3471100 0.0 1012642
18:00+9s3692100 0.0 1012270
21:00+9s3796100 0.0 1012257
6 october, thu
thu600:00+10ssw3998100 0.0 1012302
03:00+11ssw3998100 0.1 1011347
06:00+11ssw41196100 0.1 1010392
09:00+11ssw512880 0.1 1009457
12:00+15sw513740 0.0 1008653
15:00+17sw51271100 0.0 10081214
18:00+13wsw61392100 1.3 10081165
21:00+11wsw6138964 2.6 1011955
7 october, fri
fri700:00+11wsw6148561 0.0 10131108
03:00+11wsw6148396 0.1 10141215
06:00+11wsw61375100 0.1 10141482
09:00+11wsw6137225 0.1 10161378
12:00+13wsw6127156 0.1 10181333
15:00+14wsw612665 0.2 10181405
18:00+12sw5107441 0.0 1018949
21:00+11sw51283100 0.0 1018780
8 october, sat
sat800:00+11sw5138634 0.0 1017750
03:00+10sw51473100 0.0 1016849
06:00+9ssw51479100 0.0 1014597
09:00+9ssw61578100 0.0 1012701
12:00+12ssw71469100 0.0 1010923
15:00+13ssw7146660 0.0 10071386
18:00+11sw51285100 1.2 10061073
21:00+10sw512877 2.5 1007886